"Pseudo-MPEC" for CCC2M92

Created 2024 Dec 9 19:31:06 UT using Find_Orb

Click here for an explanation of pseudo-MPECs

 
 Astrometry: 
     CCC2M92*1C2024 11 22.34859703 48 04.489+15 37 17.76   ~BM92 22.41GVNEOCPG96
     CCC2M92 1C2024 11 22.35896003 48 04.673+15 37 00.77   ~BM92 21.31GVNEOCPG96
     CCC2M92 1C2024 11 22.36415703 48 04.640+15 36 51.41   ~BM92 21.63GVNEOCPG96

Station data:
(G96) Mt. Lemmon Survey  (N32.442729 W110.788720)  US/Arizona.  Observer E.
   J. Christensen. 1.5-m reflector + 10K CCD.

Orbital elements:  CCC2M92
   Perihelion 2025 Jan 7.80081 +/- 46.3 TT = 19:13:09 (JD 2460683.30081)
Epoch 2024 Nov 22.0 TT = JDT 2460636.5   Earth MOID: 0.2440   Ma: 0.0554
M 346.08116705 +/- 17               (J2000 ecliptic)             AutoNEOCP
n   0.29740583 +/- 0.26             Peri.  227.22084 +/- 60
a   2.22281368 +/- 1.29             Node   232.28084 +/- 40
e   0.4578780 +/- 0.25              Incl.    7.86141 +/- 6
P   3.31402                H 23.68  G  0.15   U 11.8  SR
q 1.20503611 +/- 0.337    Q 3.24059126 +/- 123
From 3 observations 2024 Nov. 22 (22.4 min); mean residual 0".44
Residuals in arcseconds: 
241122 G96  .26-  .12-    241122 G96  .78+  .36+    241122 G96  .52-  .23-    

Ephemerides (geocentric):
Date (UTC) HH   RA             Dec           delta  r     elong  mag " sig PA
---- --------  ------------   ------------  ------ ------ -----  --- --------
2024 12 09 20  03 56 55.401   +06 59 12.34  .27593 1.2431 156.8 22.3  53d  81
2024 12 09 21  03 56 57.335   +06 57 59.70  .27589 1.2430 156.7 22.3  53d  81
2024 12 09 22  03 56 59.274   +06 56 47.09  .27585 1.2429 156.7 22.3  53d  81
2024 12 09 23  03 57 01.216   +06 55 34.52  .27581 1.2428 156.6 22.3  53d  81
2024 12 10 00  03 57 03.163   +06 54 21.98  .27578 1.2427 156.6 22.3  53d  81
2024 12 10 01  03 57 05.114   +06 53 09.48  .27574 1.2426 156.5 22.3  53d  81
2024 12 10 02  03 57 07.069   +06 51 57.01  .27570 1.2425 156.5 22.3  53d  81
2024 12 10 03  03 57 09.029   +06 50 44.58  .27567 1.2424 156.5 22.3  53d  81
2024 12 10 04  03 57 10.993   +06 49 32.19  .27563 1.2423 156.4 22.3  53d  81
2024 12 10 05  03 57 12.961   +06 48 19.83  .27559 1.2422 156.4 22.3  54d  81
2024 12 10 06  03 57 14.934   +06 47 07.51  .27556 1.2421 156.3 22.3  54d  81
2024 12 10 07  03 57 16.910   +06 45 55.23  .27552 1.2420 156.3 22.3  54d  81
2024 12 10 08  03 57 18.891   +06 44 42.99  .27548 1.2419 156.2 22.3  54d  81
2024 12 10 09  03 57 20.876   +06 43 30.78  .27545 1.2418 156.2 22.3  54d  81
2024 12 10 10  03 57 22.866   +06 42 18.61  .27541 1.2417 156.2 22.3  54d  81
2024 12 10 11  03 57 24.860   +06 41 06.47  .27538 1.2415 156.1 22.3  54d  81
2024 12 10 12  03 57 26.858   +06 39 54.38  .27534 1.2414 156.1 22.3  54d  81
2024 12 10 13  03 57 28.860   +06 38 42.32  .27531 1.2413 156.0 22.3  54d  81
2024 12 10 14  03 57 30.867   +06 37 30.30  .27527 1.2412 156.0 22.3  54d  81
2024 12 10 15  03 57 32.878   +06 36 18.32  .27524 1.2411 155.9 22.3  54d  80
2024 12 10 16  03 57 34.893   +06 35 06.38  .27520 1.2410 155.9 22.3  54d  80
2024 12 10 17  03 57 36.913   +06 33 54.47  .27517 1.2409 155.9 22.3  54d  80
2024 12 10 18  03 57 38.937   +06 32 42.61  .27514 1.2408 155.8 22.3  54d  80
2024 12 10 19  03 57 40.965   +06 31 30.78  .27510 1.2407 155.8 22.3  55d  80
2024 12 10 20  03 57 42.998   +06 30 18.99  .27507 1.2406 155.7 22.3  55d  80
2024 12 10 21  03 57 45.035   +06 29 07.24  .27504 1.2405 155.7 22.3  55d  80
2024 12 10 22  03 57 47.076   +06 27 55.54  .27500 1.2404 155.6 22.3  55d  80
2024 12 10 23  03 57 49.122   +06 26 43.87  .27497 1.2403 155.6 22.3  55d  80
2024 12 11 00  03 57 51.172   +06 25 32.24  .27494 1.2402 155.6 22.3  55d  80
2024 12 11 01  03 57 53.227   +06 24 20.65  .27491 1.2401 155.5 22.3  55d  80
2024 12 11 02  03 57 55.285   +06 23 09.10  .27487 1.2400 155.5 22.3  55d  80
2024 12 11 03  03 57 57.348   +06 21 57.60  .27484 1.2399 155.4 22.3  55d  80
2024 12 11 04  03 57 59.416   +06 20 46.13  .27481 1.2398 155.4 22.3  55d  80
2024 12 11 05  03 58 01.488   +06 19 34.70  .27478 1.2397 155.3 22.3  55d  80
2024 12 11 06  03 58 03.564   +06 18 23.32  .27475 1.2396 155.3 22.3  55d  80
2024 12 11 07  03 58 05.644   +06 17 11.97  .27472 1.2395 155.3 22.3  55d  80
2024 12 11 08  03 58 07.729   +06 16 00.67  .27469 1.2394 155.2 22.3  55d  80
2024 12 11 09  03 58 09.819   +06 14 49.41  .27466 1.2393 155.2 22.3  55d  80
2024 12 11 10  03 58 11.913   +06 13 38.19  .27462 1.2392 155.1 22.3  55d  80
2024 12 11 11  03 58 14.011   +06 12 27.01  .27459 1.2391 155.1 22.3  55d  80
2024 12 11 12  03 58 16.113   +06 11 15.88  .27456 1.2390 155.0 22.3  55d  80
2024 12 11 13  03 58 18.220   +06 10 04.78  .27453 1.2389 155.0 22.3  56d  80
2024 12 11 14  03 58 20.331   +06 08 53.73  .27450 1.2388 155.0 22.3  56d  80
2024 12 11 15  03 58 22.447   +06 07 42.72  .27448 1.2387 154.9 22.3  56d  80
2024 12 11 16  03 58 24.567   +06 06 31.76  .27445 1.2386 154.9 22.3  56d  80
2024 12 11 17  03 58 26.692   +06 05 20.83  .27442 1.2385 154.8 22.3  56d  80
2024 12 11 18  03 58 28.821   +06 04 09.95  .27439 1.2384 154.8 22.3  56d  80
2024 12 11 19  03 58 30.954   +06 02 59.11  .27436 1.2383 154.8 22.3  56d  80